Weather History for KPOF - January, 2014

Change the Weather History Date:

Tuesday, January 7, 2014

  Actual Average Record
Temperature  
Mean Temperature 16 °F -  
Max Temperature 28 °F 42 °F 67 °F (1965)
Min Temperature 5 °F 22 °F -5 °F (1970)
Degree Days  
Heating Degree Days 48    
Moisture  
Dew Point 3 °F    
Average Humidity 53    
Maximum Humidity 61    
Minimum Humidity 44    
Precipitation  
Precipitation 0.00 in - - ()
Sea Level Pressure  
Sea Level Pressure 30.48 in    
Wind  
Wind Speed 9 mph (SSW)    
Max Wind Speed 21 mph    
Max Gust Speed 28 mph    
Visibility 10 miles    
Events      
Averages and records for this station are not official NWS values.
T = Trace of Precipitation, MM = Missing Value Source: NWS Daily Summary

Daily Weather History Graph

Daily Weather History Graph

Search for Another Location

Airport or City:

Trip Planner

Search our weather history database for the weather conditions in past years. The results will help you decide how hot, cold, wet, or windy it might be!

Date:

Astronomy

Jan. 07, 2014 Rise Set
Actual Time 7:14 AM CST 5:01 PM CST
Civil Twilight 6:45 AM CST 5:29 PM CST
Nautical Twilight 6:13 AM CST 6:01 PM CST
Astronomical Twilight 5:42 AM CST 6:33 PM CST
Moon 11:14 AM CST (1/7) No Moon Set
Length of Visible Light 10h 43m
Length of Day
9h 46m
Waxing Crescent, 46% of the Moon is Illuminated
Jan 7
Waxing Crescent
Jan 7
First Quarter
Jan 15
Full
Jan 23
Last Quarter
Jan 30
New

Hourly Weather History & Observations

Time (CST) Temp. Windchill Dew Point Humidity Pressure Visibility Wind Dir Wind Speed Gust Speed Precip Events Conditions
12:53 AM 6.1 °F -5.6 °F -9.0 °F 50% 30.60 in 10.0 mi WSW 6.9 mph - N/A   Clear
1:53 AM 6.1 °F -4.3 °F -8.0 °F 53% 30.60 in 10.0 mi SW 5.8 mph - N/A   Clear
2:53 AM 6.1 °F -2.8 °F -8.0 °F 53% 30.60 in 10.0 mi WSW 4.6 mph - N/A   Clear
3:53 AM 5.0 °F -4.1 °F -8.0 °F 55% 30.60 in 10.0 mi SW 4.6 mph - N/A   Clear
4:53 AM 6.1 °F -2.8 °F -7.1 °F 55% 30.58 in 10.0 mi SW 4.6 mph - N/A   Clear
5:53 AM 7.0 °F -3.3 °F -5.1 °F 58% 30.58 in 10.0 mi SSW 5.8 mph - N/A   Clear
6:53 AM 8.1 °F -3.2 °F -2.9 °F 61% 30.58 in 10.0 mi SSW 6.9 mph - N/A   Clear
7:53 AM 10.0 °F -0.9 °F -0.9 °F 61% 30.57 in 10.0 mi South 6.9 mph - N/A   Clear
8:53 AM 12.9 °F 1.6 °F -0.0 °F 56% 30.58 in 10.0 mi South 8.1 mph - N/A   Clear
9:53 AM 16.0 °F 1.1 °F 1.0 °F 52% 30.58 in 10.0 mi SSW 15.0 mph - N/A   Clear
10:53 AM 19.0 °F 7.5 °F 1.0 °F 46% 30.55 in 10.0 mi South 10.4 mph - N/A   Clear
11:53 AM 21.0 °F 7.1 °F 3.0 °F 46% 30.49 in 10.0 mi SSW 16.1 mph - N/A   Clear
12:53 PM 24.1 °F 11.0 °F 5.0 °F 44% 30.44 in 10.0 mi South 16.1 mph 23.0 mph N/A   Clear
1:53 PM 26.1 °F 12.3 °F 7.0 °F 44% 30.42 in 10.0 mi SSW 19.6 mph - N/A   Clear
2:53 PM 27.0 °F 14.7 °F 9.0 °F 47% 30.39 in 10.0 mi SSW 16.1 mph 25.3 mph N/A   Clear
3:53 PM 28.0 °F 14.6 °F 10.0 °F 47% 30.38 in 10.0 mi SSW 20.7 mph 27.6 mph N/A   Clear
4:53 PM 28.0 °F 17.0 °F 10.9 °F 49% 30.36 in 10.0 mi SSW 13.8 mph - N/A   Clear
5:53 PM 27.0 °F 15.6 °F 10.9 °F 51% 30.35 in 10.0 mi South 13.8 mph - N/A   Clear
6:53 PM 27.0 °F 16.7 °F 10.9 °F 51% 30.36 in 10.0 mi South 11.5 mph - N/A   Clear
7:53 PM 26.1 °F 16.2 °F 12.0 °F 55% 30.37 in 10.0 mi South 10.4 mph - N/A   Clear
8:53 PM 25.0 °F 18.1 °F 12.9 °F 60% 30.38 in 10.0 mi South 5.8 mph - N/A   Clear
9:53 PM 25.0 °F 17.1 °F 12.0 °F 58% 30.38 in 10.0 mi South 6.9 mph - N/A   Clear
10:53 PM 25.0 °F 15.5 °F 12.0 °F 58% 30.38 in 10.0 mi South 9.2 mph - N/A   Clear
11:53 PM 25.0 °F 13.6 °F 12.0 °F 58% 30.38 in 10.0 mi South 12.7 mph - N/A   Clear